sat.trackr.live / text

‹ back to catalog

STARLINK-34345

NORAD 64153 · 2025-112H

PAYLOAD ACTIVE UNKNOWN

§ Identity

Operator
Country
US
Launch date
2025-05-27
Launch site
AFWTR
Launch vehicle
Mass (kg)
RCS (m²)

Purposes: comms

External: N2YO · Heavens-Above · Gunter

§ Orbital elements

Epoch: 2026-05-25T03:30:00.482688Z

Period
95.64 min
Inclination
97.4469°
Eccentricity
0.0001933
Mean motion
15.05656891 rev/d
Perigee alt
548.2 km
Apogee alt
550.8 km
Semi-major
6,927.6 km
B*
3.7490e-4
RAAN
196.5270°
Arg perigee
120.5665°
Mean anomaly
239.5753°
Rev number
5,481

§ Raw data

STARLINK-343451 64153U 25112H   26145.14583892  .00005356  00000+0  37490-3 0  99922 64153  97.4469 196.5270 0001933 120.5665 239.5753 15.05656891 54819

JSON: /api/v1/satellites/64153 · /tle

For live sub-satellite position, see the globe view (requires WebGL).

§ Visibility from observer

Set your observer location to see the next 7 days of passes ≥ 10°. The values pass through the URL so the page stays shareable.

No JS? Fill the form by hand. The geolocation button needs JavaScript.